Location: *
(51.8167°N, 12.5000°E)
Time: 16:46:34
(UTC+00:00)

Cosmos 1441 Rocket - Pass Details

Date: 16 September 2019
Orbit: 496 x 542 km, 81.1° (Epoch: 13 October)

Event Time Altitude Azimuth Distance (km) Brightness Sun altitude
Rises 18:33:02 0° 182° (S) 2,633 6.6 -11.4°
Reaches altitude 10° 18:35:11 10° 179° (S) 1,742 5.7 -11.7°
Maximum altitude 18:38:57 62° 99° (E) 584 3.1 -12.2°
Drops below altitude 10° 18:42:43 10° 19° (NNE) 1,733 5.9 -12.8°
Sets 18:44:51 0° 16° (NNE) 2,617 6.9 -13.1°
